{"data":{"norad_id":81102,"intl_designator":"","name":"UNKNOWN","alt_names":[],"object_type":"UNKNOWN","status":"UNKNOWN","operator":null,"country":null,"launch_date":null,"launch_site_code":null,"launch_vehicle":null,"mission":null,"orbit_class":"UNKNOWN","rcs_meters":null,"size_class":null,"mass_kg":null,"dimensions":null,"purposes":[],"wikipedia_slug":null,"has_3d_model":false,"image_url":null,"decayed_at":null,"tle_current":{"epoch":"2026-08-18T22:04:14.685024Z","epoch_age_seconds":2829032,"freshness":"OLD","line1":"1 81102U          26230.91961441  .00067901  00000+0  14501-2 0  9995","line2":"2 81102  52.0261 105.4491 3267526 121.7936 274.2751  8.91624791   605","mean_motion":8.91624791,"eccentricity":0.3267526,"inclination_deg":52.0261,"raan_deg":105.4491,"arg_perigee_deg":121.7936,"mean_anomaly_deg":274.2751,"bstar":0.0014501,"rev_number":60,"period_min":161.50291182292,"perigee_km":235.72459992822,"apogee_km":6655.6423710677,"semimajor_km":9823.8204854979,"source":"CELESTRAK","updated_at":"2026-09-17T09:00:30.207767Z"}}}